Flag for Germany Weather past 2 weeks in Rheinfelden (Baden), Baden-Württemberg, Germany

Now
68 °F

Scattered clouds.


Feels Like: 68 °F
Forecast: 44 / 65 °F
Wind: 14 mph from Northwest

Location: Bale-Mulhouse

Current Time: May 6, 2015 at 4:41:34 PM

Latest Report: May 6, 2015 at 4:00 PM


Visibility: N/A

Pressure: 30.01 "Hg

Humidity: 49%

Dew point: 48 °F

Location of Rheinfelden (Baden)Location

Historic Weather in Rheinfelden (Baden) — Graph

°F

Rheinfelden (Baden) temperature yesterday

Maximum temperature yesterday: 73 °F (at 11:15 AM)
Minimum temperature yesterday: 57 °F (at 11:00 PM)
Average temperature yesterday: 65 °F

Past Weeks' High & Low Weather Summary

 TemperatureHumidityPressure
High73 °F (Apr 24, 4:00 PM)100% (Apr 26, 2:30 AM)30.33 "Hg (Apr 26, 2:30 AM)
Low36 °F (Apr 29, 6:00 AM)21% (Apr 24, 7:30 PM)29.50 "Hg (Apr 27, 4:00 PM)
Average57 °F74%29.91 "Hg
* Reported Apr 21 3:00 PM — May 6 3:30 PM, Rheinfelden (Baden), Weather by CustomWeather, © 2015

Note: Actual official high and low records may vary slightly from our data, if they occured in-between our weather recording intervals... More about our weather records

Advertising

Rheinfelden (Baden) weather history for previous 24 hours

 ConditionsComfort  
Time TempWeatherWind HumidityBarometerVisibility
3:30 PM
Wed, May 6
70 °FScattered clouds.10 mph43%30.01 "HgN/A
3:00 PM70 °FScattered clouds.8 mph40%30.01 "HgN/A
2:30 PM68 °FScattered clouds.8 mph46%30.01 "HgN/A
2:00 PM66 °FScattered clouds.8 mph46%30.01 "HgN/A
1:30 PM68 °FPassing clouds.8 mph40%30.01 "HgN/A
1:00 PM66 °FPassing clouds.9 mph46%30.01 "HgN/A
12:30 PM66 °FPassing clouds.7 mph52%30.04 "HgN/A
12:00 PM64 °FPassing clouds.8 mph49%30.04 "HgN/A
11:30 AM63 °FPassing clouds.6 mph56%30.04 "HgN/A
11:00 AM63 °FPassing clouds.7 mph59%30.04 "HgN/A
10:30 AM59 °FPassing clouds.6 mph68%30.04 "HgN/A
10:00 AM57 °FScattered clouds.5 mph72%30.04 "HgN/A
9:30 AM57 °FScattered clouds.5 mph72%30.04 "HgN/A
9:00 AM57 °FScattered clouds.2 mph72%30.04 "HgN/A
8:30 AM55 °FScattered clouds.1 mph88%30.04 "HgN/A
8:00 AM54 °FBroken clouds.1 mph94%30.01 "HgN/A
7:30 AM54 °FBroken clouds.1 mph94%30.01 "HgN/A
7:00 AM54 °FPartly cloudy.3 mph94%30.01 "HgN/A
6:30 AM54 °FPassing clouds.5 mph94%30.01 "HgN/A
6:00 AM54 °FPassing clouds.3 mph94%29.98 "HgN/A
5:00 AM55 °FPassing clouds.5 mph88%29.98 "HgN/A
4:30 AM55 °FPassing clouds.3 mph88%29.98 "HgN/A
4:00 AM55 °FCool.3 mph94%29.98 "HgN/A
3:30 AM57 °FOvercast.3 mph88%29.98 "HgN/A
3:00 AM57 °FOvercast.3 mph88%29.98 "HgN/A
2:30 AM57 °FClear.1 mph94%29.98 "HgN/A
2:00 AM57 °FClear.5 mph94%29.98 "HgN/A
1:30 AM57 °FClear.3 mph94%29.98 "HgN/A
1:00 AM57 °FClear.1 mph94%29.95 "HgN/A
12:30 AM57 °FClear.1 mph94%29.95 "HgN/A
12:00 AM57 °FPartly cloudy.2 mph94%29.95 "HgN/A
11:30 PM
Tue, May 5
57 °FPassing clouds.2 mph94%29.95 "HgN/A
11:00 PM57 °FPassing clouds.3 mph94%29.95 "HgN/A
10:30 PM59 °FPassing clouds.2 mph88%29.95 "HgN/A
10:00 PM59 °FPassing clouds.7 mph88%29.92 "HgN/A
9:30 PM59 °FBroken clouds.7 mph94%29.92 "HgN/A
9:00 PM59 °FLight rain. Partly sunny.5 mph88%29.92 "HgN/A
8:30 PM59 °FScattered showers. Partly sunny.3 mph88%29.92 "HgN/A
8:00 PM59 °FScattered showers. Partly sunny.6 mph88%29.89 "HgN/A
7:30 PM61 °FPartly sunny.5 mph88%29.89 "HgN/A
7:00 PM61 °FPartly sunny.5 mph88%29.89 "HgN/A
6:30 PM61 °FLight rain. Partly sunny.5 mph83%29.89 "HgN/A
5:30 PM63 °FBroken clouds.8 mph73%29.86 "HgN/A
5:00 PM63 °FLight rain. Broken clouds.9 mph77%29.86 "HgN/A
4:30 PM64 °FLight rain. Partly sunny.8 mph73%29.86 "HgN/A
4:00 PM66 °FLight rain. Broken clouds.10 mph64%29.83 "HgN/A
Weather by CustomWeather, © 2015

See weather overviewHow to use our weather pages